Air Resources Laboratory banner image
Air Resources Laboratory web site National Oceanic and Atmospheric Administration (NOAA)

ri roundup


Office: BOX

ASUS41 KBOX 170810
RWRBOX

REGIONAL WEATHER ROUNDUP
NATIONAL WEATHER SERVICE BOSTON/NORTON MA
400 AM EDT WED OCT 17 2018

NOTE:  "FAIR" INDICATES FEW OR NO CLOUDS BELOW 12,000 FEET WITH NO
SIGNIFICANT WEATHER AND/OR OBSTRUCTIONS TO VISIBILITY.

MAZALL-170900-
EASTERN MASSACHUSETTS

CITY           SKY/WX    TMP DP  RH WIND       PRES   REMARKS
BOSTON         FAIR      46  36  68 W9        29.96F
BEVERLY        FAIR      39  34  82 CALM      29.95F
LAWRENCE       FAIR      42  35  76 S3        29.97F
BEDFORD        FAIR      41  35  79 CALM      29.95F
BLUE HILL        N/A     40  35  83 SW10      29.94F
NORWOOD        FAIR      37  34  89 CALM      29.97F
MARSHFIELD     FAIR      41  37  87 SW5       29.98S
PLYMOUTH       FAIR      40  36  86 CALM      29.99S
TAUNTON        FAIR      35  33  92 CALM      29.98F
NEW BEDFORD    FAIR      39  38  96 CALM      29.98F
$$

MAZALL-170900-
CAPE COD AND THE ISLANDS

CITY           SKY/WX    TMP DP  RH WIND       PRES   REMARKS
FALMOUTH       FAIR      45  36  70 W5        30.00S
HYANNIS        FAIR      37  36  96 CALM      29.98S
CHATHAM        FAIR      41  36  82 CALM      29.99F
PROVINCETOWN   FAIR      49  39  68 W10       29.98S
NANTUCKET      MOCLDY    50  40  68 NW6       30.00F
MARTHAS VNYRD  FAIR      50  38  63 W5        29.99F
$$

MAZALL-170900-
CENTRAL AND WESTERN MASSACHUSETTS

CITY           SKY/WX    TMP DP  RH WIND       PRES   REMARKS
WORCESTER      FAIR      37  33  85 SW9       29.94F WCI  30
FITCHBURG      FAIR      33  31  92 CALM      29.95F
ORANGE         FAIR      33  30  88 CALM      29.95F
SPRINGFIELD    FAIR      36  34  93 CALM      29.94F
WESTFIELD      FAIR      34  33  96 SE3       29.95F
NORTH ADAMS    MOCLDY    32  32 100 CALM      29.93F
PITTSFIELD     FAIR      35  32  88 CALM      29.91F
$$

RIZALL-170900-
RHODE ISLAND

CITY           SKY/WX    TMP DP  RH WIND       PRES   REMARKS
PROVIDENCE     FAIR      42  36  79 W5        29.99F
NEWPORT        FAIR      46  38  73 CALM      29.99F
BLOCK ISLAND   FAIR      53  43  68 W10       29.99F
SMITHFIELD     FAIR      39  35  86 CALM      29.97F
WESTERLY       FAIR      41  39  93 CALM      29.99F
$$

CTZALL-170900-
CONNECTICUT

CITY           SKY/WX    TMP DP  RH WIND       PRES   REMARKS
BRADLEY INTL   FAIR      40  36  86 S9        29.96F
HARTFORD       FAIR      43  37  79 S8        29.97F
BRIDGEPORT     FAIR      48  39  71 W8        29.99F
DANBURY        FAIR      37  36  96 CALM      30.00F
GROTON         FAIR      46  37  71 CALM      29.98F
NEW HAVEN      FAIR      51  40  65 SW9G17    29.99F
CHESTER        FAIR      43  37  81 W3        29.98F
MERIDEN        FAIR      36  35  96 SE3       29.99F
WILLIMANTIC    CLOUDY    36  36 100 CALM      29.98F FOG
OXFORD         FAIR      40  36  86 SW3       29.98F
$$

MEZ002-015-021-024-NHZ003-005-008-011-012-014-VTZ005-008-170900-
NORTHERN NEW ENGLAND

CITY           SKY/WX    TMP DP  RH WIND       PRES   REMARKS
PORTLAND ME    FAIR      40  34  79 SW3       29.92F
BANGOR ME      FAIR      39  30  70 S7        29.88F
CONCORD NH     CLOUDY    34  32  92 CALM      29.93F
MANCHESTER NH  CLOUDY    41  35  79 CALM      29.92F
NASHUA NH      MOCLDY    37  36  96 CALM      29.95F
PORTSMOUTH NH  MOCLDY    39  34  84 S5        29.93
JAFFREY NH     FAIR      32  32 100 CALM      29.93F
KEENE NH       CLOUDY    31  31 100 CALM      29.94F
BURLINGTON VT  CLOUDY    47  33  58 S14       29.83F
MT. WASHINGTON FOG       21  21 100 W41         N/A  VSB 0   WCI   0
$$

NYZ052-076-170900-
EASTERN NEW YORK

CITY           SKY/WX    TMP DP  RH WIND       PRES   REMARKS
ALBANY         FAIR      42  35  76 S7        29.94F
NEW YORK CITY  MOCLDY    52  35  52 W8        30.01F
$$

ANZALL-170900-
MARINE OBSERVATIONS

STATION/POSITION TIME  TEMP    WIND        PRES    VSBY  WAVE
                       AIR SEA DIR/SP/G                  HT/PER
                 (UTC) (F)     (DEG/KT/KT) (MB)    (MI)  (FT/S)
BOSTON BUOY      0750   50 59  240/ 12/ 16 1014.0F         1/ 3
BUZZARDS BAY     0700   54     260/ 17/ 19 1016.2F
NANTUCKET SOUND  0750   56 63  260/ 16/ 19 1015.4F         2/ 3
MASS BAY-STELLWA 0704   51 58  260/ 12/ 16 1013.4F  1 7/8  2/ 3
ISLE OF SHOALS   0700   47     240/ 15/ 16 1013.4F
S OF BLOCK IS    0743      63                N/A           4/ 6
$$

......................KEY.........................
  SKY/WX - SKY CONDITION/PRESENT WEATHER
  TMP    - TEMPERATURE IN FAHRENHEIT
  DWPT   - DEWPOINT IN FAHRENHEIT
  RH     - RELATIVE HUMIDITY IN PERCENT
  WIND   - DIRECTION AND SPEED IN MPH
  PRES   - MEAN SEA LEVEL PRESSURE IN INCHES OF HG
  WCI    - WIND CHILL INDEX
  VSB    - VISIBILITY IN MILES
  HX     - HEAT INDEX
  TC     - TEMPERATURE IN CELSIUS
  VRB    - VARIABLE WIND DIRECTION
  N/A    - NOT AVAILABLE




Office: OKX ASUS41 KOKX 170806 RWROKX Regional Weather Roundup National Weather Service New York NY 400 AM EDT WED OCT 17 2018 Note: "FAIR" indicates few or no clouds below 12,000 feet with no significant weather and/or obstructions to visibility. NYZ071-072-176-178-NJZ106-104-170900- New York City Metro Area CITY SKY/WX TMP DP RH WIND PRES REMARKS Central Park FAIR 49 40 71 MISG 30.03F Bronx Lehman C N/A 48 37 66 SW5 N/A LaGuardia Arpt MOCLDY 52 35 52 W8 30.01F Queens College N/A 50 37 62 W8 N/A Kennedy Intl MOCLDY 50 41 71 W14 30.03F Breezy Point N/A 52 N/A N/A W10G16 N/A Brooklyn Coll N/A 50 39 66 SW7 N/A Staten Island N/A 46 41 81 SW3 N/A Newark/Liberty MOCLDY 45 39 79 SW7 30.02F Teterboro FAIR 44 39 82 S3 30.01F $$ NYZ177-179-078>081-170900- Long Island New York CITY SKY/WX TMP DP RH WIND PRES REMARKS Jones Beach N/A 54 N/A N/A W10G16 N/A Wantagh N/A 48 39 71 W5 N/A Hempstead N/A 50 39 66 SW3 30.04F Matinecock Pt N/A 54 N/A N/A W23 N/A Farmingdale FAIR 46 38 73 W5 30.01F MacArthur/ISP FAIR 46 38 73 W6 30.00F Stony Brook N/A 48 37 66 W3 N/A Shirley FAIR 45 37 73 W3 30.01F Mt Sinai Harb N/A N/A N/A N/A SW5 N/A Westhampton FAIR 36 33 89 CALM 30.02F East Hampton FAIR 42 39 89 CALM 30.00F Southold N/A 46 37 71 SW3 N/A Montauk N/A 52 42 69 SW8 30.01F $$ NYZ052-065-067-170900- Hudson Valley CITY SKY/WX TMP DP RH WIND PRES REMARKS White Plains FAIR 44 37 76 W6 29.99F Larchmont Harb N/A 50 N/A N/A SW10 N/A Croton On Huds N/A 46 N/A N/A S3 N/A Somers N/A 39 37 93 CALM N/A Brewster N/A 36 34 93 W1 N/A Newburgh CLEAR 43 37 81 W9 30.00F Montgomery FAIR 39 36 89 SW7 29.98F WCI 34 Otisville N/A 36 34 93 S2 N/A Warwick N/A 41 39 93 NW3 N/A Suffern N/A 43 36 75 W3 N/A Poughkeepsie FAIR 43 37 79 SW7 29.98F Albany FAIR 42 35 76 S7 29.94F $$ NJZ001-105-106-008-010-013-015-019>022-104-170900- New Jersey CITY SKY/WX TMP DP RH WIND PRES REMARKS Newark/Liberty MOCLDY 45 39 79 SW7 30.02F Teterboro FAIR 44 39 82 S3 30.01F Caldwell FAIR 41 39 93 CALM 30.02F Somerville FAIR 38 37 97 CALM 30.01F Linden FAIR 45 39 78 CALM 30.03 Perth Amboy N/A 46 N/A N/A W5 N/A Sussex FAIR 36 35 96 CALM 30.00F Andover N/A 39 37 92 CALM 30.01F Trenton FAIR 45 40 82 CALM 30.03F Millville FAIR 51 49 92 CALM 30.05F Atlantic City CLOUDY 55 48 77 SW3 30.04F Wrightstown CLEAR 47 43 86 CALM 30.01 Toms River FAIR 42 41 96 CALM 30.05F Belmar FAIR 45 41 86 W5 30.04F $$ PAZ047>061-062-071-170900- Eastern Pennsylvania CITY SKY/WX TMP DP RH WIND PRES REMARKS Philadelphia CLOUDY 50 41 71 W6 30.05F Allentown FAIR 43 38 82 SW6 30.02F Scranton FAIR 40 35 83 SW5 30.00F $$ CTZ002-004>006-009-010-012-RIZ004-006-007-MAZ004-011-015-170900- Southern New England In CT CITY SKY/WX TMP DP RH WIND PRES REMARKS Bradley Intl FAIR 40 36 86 S9 29.96F WCI 34 Hartford FAIR 43 37 79 S8 29.97F Danbury FAIR 37 36 96 CALM 30.00F Wtrbury/Oxford FAIR 40 36 86 SW3 29.98F Norwalk Harbor N/A 50 N/A N/A SW16 N/A Bridgeport FAIR 48 39 71 W8 29.99F Meriden FAIR 36 35 96 SE3 29.99F New Haven FAIR 51 40 65 SW9G17 29.99F Chester FAIR 43 37 81 W3 29.98F Groton FAIR 46 37 71 CALM 29.98F Willimantic MOCLDY 36 36 100 CALM 29.98F In RI CITY SKY/WX TMP DP RH WIND PRES REMARKS Providence FAIR 42 36 79 W5 29.99F Block Island FAIR 53 43 68 W10 29.99F Westerly FAIR 41 39 93 CALM 29.99F In MA CITY SKY/WX TMP DP RH WIND PRES REMARKS Boston FAIR 46 36 68 W9 29.96F Worcester FAIR 37 33 85 SW9 29.94F WCI 30 Westfield FAIR 34 33 96 SE3 29.95F Provincetown FAIR 49 39 68 W10 29.98S Nantucket MOCLDY 50 40 68 NW6 30.00F $$ ANZ330-335-338-340-345-350-353-355-170900- Coastal Marine Observations STATION/POSITION TIME SKY/WX TEMP WIND PRES VSBY WAVE AIR SEA DIR/SP/G HT/PER (UTC) (F) (DEG/KT/KT) (MB) (MI) (FT/S) NY Harb Entrance 0750 57 68 260/ 17/ 21 1016.3 2/ 4 20 S Fire Island 0750 59 65 280/ 17/ 21 1016.2 4/ 4 Great South Bay 0715 54 60 280/ 10/ 12 N/A 23 SSW Montauk P 0750 57 64 260/ 17/ 21 1016.2 4/ 5 15 E Barnegat Li 0730 70 N/A 3/13 Hudson Canyon 0750 61 290/ 12/ 16 1017.0 4/ 5 Kings Point 0742 53 66 320/ 11/ 17 1017.2 Execution Rocks 0715 66 250/ 12/ 16 N/A Western LI Sound NOT AVBL Central LI Sound 0730 58 68 270/ 19/ 27 N/A 3/ 5 Robbins Reef 0742 49 270/ 8/ 9 1017.2 $$ >>>>>>>>>>>>>>>>>>>>>>>>>>>> KEY <<<<<<<<<<<<<<<<<<<<<<<<<<< > < > SKY/WX - Sky Condition/Present Weather < > TMP - Temperature in Fahrenheit < > DP - Dew Point in Fahrenheit < > RH - Relative Humidity in Percent < > WIND - Direction (from) and Speed in MPH < > PRES - Mean Sea Level Pressure (inches of Hg) < > WCI - Wind Chill Index < > VSB - Visibility in Miles < > HX - Heat Index < > TC - Temperature in Celsius < > VRB - Variable Wind Direction < > < >>>>>>>>>>>>>>>>>>>>>>>>>>>> KEY <<<<<<<<<<<<<<<<<<<<<<<<<<<